Regional Weather Roundup
Issued by NWS

Home | Current Version | Previous Version | Text Only | Print | Product List | Glossary On
Versions: 1 2 3 4 5 6 7 8 9 10 11 12 13 14 15 16 17 18 19 20 21 22 23 24 25 26 27 28 29 30 31 32 33 34 35 36 37 38 39 40 41 42 43 44 45 46 47 48 49 50
000
ASUS44 KFWD 261715
RWRTX
NORTH TEXAS HOURLY WEATHER ROUNDUP
NATIONAL WEATHER SERVICE FORT WORTH TX
1100 AM CST SUN FEB 26 2017

NOTE: "FAIR" INDICATES FEW OR NO CLOUDS BELOW 12,000 FEET WITH NO
SIGNIFICANT WEATHER AND/OR OBSTRUCTIONS TO VISIBILITY.

TXZ118-119-261800-
DALLAS/FORT WORTH METROPLEX

CITY           SKY/WX    TMP DP  RH WIND       PRES   REMARKS
DFW AIRPORT    CLOUDY    58  41  53 S13       29.97F
DALLAS LOVE    CLOUDY    58  41  53 S13       29.99F
FTW MEACHAM    CLOUDY    57  40  52 S16       29.97F
DAL-EXECUTIVE  CLOUDY    57  42  57 S13G21    29.98F
FTW-ALLIANCE   CLOUDY    58  37  45 S20G25    29.96F
FTW-NAS-JRB    CLOUDY    56  42  59 S17G26    29.98S
FTW-SPINKS     CLOUDY    57  43  58 S13G25    29.98F
ARLINGTON      CLOUDY    58  42  55 S14G21    29.99S
GRAND PRAIRIE  CLOUDY    57  41  54 S14G23    30.00F
ADDISON        CLOUDY    55  41  58 S15       29.99F
MESQUITE       CLOUDY    55  39  54 SE10G17   30.01F
LANCASTER      CLOUDY    54  42  64 SE15G21   30.00F
$$

TXZ091>094-102>105-117-120-121-131>134-261800-
NORTH CENTRAL TEXAS

CITY           SKY/WX    TMP DP  RH WIND       PRES   REMARKS
SHRMAN/DENISON CLOUDY    55  38  53 S15       30.00S
GAINESVILLE    CLOUDY    54  37  51 S16       29.98F
BOWIE          CLOUDY    56  37  49 S13       29.95R
BRIDGEPORT     CLOUDY    59  44  56 S15G22    29.97R
DECATUR        CLOUDY    55  40  56 S8G20     29.96R
DENTON         CLOUDY    56  38  50 S22G28    29.96F
MCKINNEY       CLOUDY    55  41  59 S12       30.00S
BONHAM         MOSUNNY   57  39  51 S20G28    30.01F
GREENVILLE     CLOUDY    57  37  47 S14G20    30.02S
ROCKWALL       CLOUDY    57  42  57 S16       30.01F
TERRELL        LGT RAIN  56  40  55 S17       30.03S
WAXAHACHIE     CLOUDY    56  42  60 S13       30.01S
CLEBURNE       CLOUDY    54  43  66 SE12G17   30.00R
GRANBURY       CLOUDY    57  45  62 S10       29.98S
$$

TXZ083>090-098>101-113>116-127>130-139>142-154-155-261800-
WESTERN NORTH TEXAS

CITY           SKY/WX    TMP DP  RH WIND       PRES   REMARKS
WICHITA FALLS  PTSUNNY   53  34  48 S14       29.91F
WF-KICKAPOO    PTSUNNY   52  34  51 S8        29.93F
VERNON         MOSUNNY   50  30  45 W10       29.92R
ABILENE        SUNNY     59  47  64 SW29G41   29.89S
ABILENE-DYESS  SUNNY     61  46  57 SW20G28   29.91R
GRAHAM         CLOUDY    57  43  58 S9G20     29.92S
BRECKENRIDGE   MOSUNNY   64  46  52 W16       29.92S HAZE
CISCO          SUNNY     59  46  63 SW23G32   29.91F
RANGER         CLOUDY    59  48  67 S20G29    29.94S
MINERAL WELLS  CLOUDY    62  46  55 S14G26    29.93F
STEPHENVILLE   CLOUDY    56  46  69 S16G23    29.99S
COMANCHE       CLOUDY    57  49  75 SW18      29.97S
BROWNWOOD      CLOUDY    55  45  67 S13       29.98F
COLEMAN        MOSUNNY   60  46  61 SW10      29.96S
$$

TXZ143>147-156>162-174-175-261800-
CENTRAL TEXAS

CITY           SKY/WX    TMP DP  RH WIND       PRES   REMARKS
WACO           CLOUDY    53  43  68 S13       30.02R
WACO-MCGREGOR  CLOUDY    53  45  74 S12       30.02S
HILLSBORO      CLOUDY    57  46  66 S18       30.01R
CORSICANA      CLOUDY    58  45  62 SE14G25   30.02F
MEXIA          CLOUDY    57  44  62 SE12G21   30.00F
HEARNE         CLOUDY    58  48  67 SE12G17   30.03S
CAMERON        CLOUDY    59  48  67 SE7       30.01F
TEMPLE         CLOUDY    54  44  69 S7        30.03R
KILLEEN        CLOUDY    54  46  74 SE7       30.00R
KILLEEN-SKYLRK CLOUDY    54  44  69 S3        30.02R
FORT HOOD      CLOUDY    54  44  70 S8        29.99R HAZE
GATESVILLE     CLOUDY    55  45  67 S6        30.02F
HAMILTON       CLOUDY    57  48  72 S16       29.99S
LAMPASAS       CLOUDY    58  52  82 S6        29.98F
$$

TXZ095>097-106>112-122>126-135>138-148>153-164>167-261800-
EAST TEXAS

CITY           SKY/WX    TMP DP  RH WIND       PRES   REMARKS
PARIS          PTSUNNY   54  34  47 S17       30.05F
SULPHUR SPRNGS CLOUDY    57  33  40 S14G20    30.06S
MOUNT PLEASANT   N/A     57  32  38 SE10G16   30.08F
GILMER         MOSUNNY   55  32  41 SE8       30.07F
MINEOLA        CLOUDY    57  32  38 S10       30.04F
TYLER          CLOUDY    61  38  42 SE13      30.05S
LONGVIEW       PTSUNNY   59  33  37 S12       30.07F
MARSHALL       PTSUNNY   57  26  29 S10G17    30.11R
PALESTINE      CLOUDY    57  42  59 SE7       30.06F
JACKSONVILLE   CLOUDY    58  42  54 S13       30.07F
HENDERSON      PTSUNNY   59  32  35 S14G20    30.08F
CENTER         SUNNY     64  33  31 SE12G17   30.10S
NACOGDOCHES    SUNNY     63  41  45 S9        30.07S
LUFKIN         PTSUNNY   62  45  53 S14       30.08S
$$

SUPPLEMENTAL OBSERVATIONS (CENTRAL)

CITY           SKY/WX    TMP DP  RH WIND       PRES   REMARKS
DENISON DAM      N/A     55  37  50 S8          N/A
CADDO GRASSLND   N/A     57  34  41 S12         N/A
PAT MAYSE LAKE   N/A     54  28  37 SE15        N/A
ATHENS           N/A     63  43  48 S17G24      N/A
LAKE LIMESTONE   N/A     57  45  62 SE9         N/A
MCGREGOR         N/A     54  43  66 S8          N/A
TEMPLE           N/A     54  45  71 S6          N/A
$$

SUPPLEMENTAL OBSERVATIONS (WEST)

CITY           SKY/WX    TMP DP  RH WIND       PRES   REMARKS
MILLERS CREEK    N/A     55  39  54 SW13        N/A
POSSUM KINGDOM   N/A     63  46  55 SW15        N/A
LBJ GRASSLAND    N/A     57  43  58 S10         N/A
GRANBURY         N/A     57  45  62 S14G23      N/A
COMANCHE         N/A     57  46  67 SW15G26     N/A
HAMBY            N/A     61  46  59 SW20G31     N/A
IVIE RESERVOIR   N/A     68  52  56 SW16G22     N/A
COLORADO BEND    N/A     57  48  72 SW8G17      N/A
$$

SUPPLEMENTAL OBSERVATIONS (EAST)

CITY           SKY/WX    TMP DP  RH WIND       PRES   REMARKS
CLARKSVILLE      N/A     55  32  41 SE13        N/A
TEXARKANA        N/A     57  28  33 SE6G14      N/A
LINDEN           N/A     55  28  35 SE5         N/A
CADDO LAKE       N/A    N/A N/A N/A SE5         N/A
GILMER           N/A     57  32  38 S12G23      N/A
HENDERSON        N/A     61  32  33 S13         N/A
LUFKIN           N/A     63  45  51 MISG        N/A
N SABINE NF      N/A     63  36  36 MISG        N/A
S SABINE NF      N/A     61  34  36 SE6         N/A
$$

SUPPLEMENTAL OBSERVATIONS ARE A COLLECTION OF AUTOMATED INSTRUMENTS
THAT ARE MAINTAINED BY A VARIETY OF FEDERAL AND STATE AGENCIES.
CERTAIN ELEMENTS...SUCH AS HUMIDITY VALUES AND SUSTAINED WIND
SPEEDS...MAY BE APPROXIMATED.





USA.gov is the U.S. government's official web portal to all federal, state and local government web resources and services.